QPF
0.01 0.01 0.01 0.01 0.02 0.01 0.01 0.01 0.01 0.01 0.01 0.01 0.00 0.00 0.00 0.00 0.01 0.01 0.01 0.01 0.01 0.01 0.01 0.01 0.01 0.01 0.01 0.01 0.01 0.01 0.01 0.01 0.01 0.01 0.01 0.01 0.00 0.01 0.01 0.01 0.02 0.03 0.03
0.01 0.01 0.01 0.01 0.01 0.02 0.02 0.02 0.02 0.01 0.01 0.01 0.00 0.00 0.00 0.00 0.00 0.01 0.01 0.01 0.01 0.01 0.01 0.00 0.01 0.01 0.01 0.01 0.00 0.00 0.00 0.00 0.00 0.01 0.01 0.00 0.01 0.02 0.01 0.01 0.02 0.03 0.03
0.01 0.01 0.01 0.00 0.01 0.02 0.02 0.03 0.03 0.02 0.01 0.01 0.00 0.00 0.00 0.00 0.00 0.00 0.01 0.01 0.01 0.01 0.01 0.01 0.00 0.00 0.00 0.01 0.01 0.01 0.00 0.00 0.00 0.01 0.00 0.00 0.00 0.01 0.01 0.01 0.03 0.03 0.03
0.01 0.01 0.01 0.01 0.02 0.02 0.02 0.04 0.03 0.02 0.01 0.01 0.01 0.00 0.00 0.00 0.01 0.00 0.00 0.01 0.01 0.01 0.01 0.00 0.00 0.00 0.01 0.01 0.01 0.01 0.00 0.00 0.00 0.00 0.00 0.00 0.00 0.01 0.01 0.01 0.02 0.02 0.02
0.01 0.01 0.02 0.02 0.03 0.03 0.03 0.04 0.03 0.03 0.02 0.01 0.01 0.01 0.01 0.00 0.00 0.00 0.00 0.00 0.00 0.01 0.01 0.00 0.00 0.00 0.01 0.01 0.01 0.01 0.01 0.00 0.00 0.00 0.00 0.00 0.00 0.00 0.00 0.00 0.01 0.00 0.01
0.02 0.03 0.03 0.03 0.04 0.04 0.04 0.03 0.03 0.03 0.02 0.02 0.02 0.01 0.01 0.00 0.00 0.01 0.00 0.01 0.01 0.00 0.00 0.00 0.00 0.00 0.00 0.01 0.01 0.01 0.01 0.01 0.00 0.00 0.00 0.01 0.00 0.00 0.00 0.00 0.00 0.00 0.01
0.03 0.03 0.04 0.03 0.03 0.02 0.02 0.03 0.03 0.03 0.02 0.02 0.01 0.01 0.00 0.00 0.00 0.01 0.00 0.00 0.01 0.00 0.00 0.00 0.00 0.00 0.00 0.00 0.00 0.00 0.00 0.00 0.00 0.01 0.01 0.01 0.00 0.01 0.00 0.00 0.00 0.00 0.00
0.04 0.03 0.03 0.02 0.01 0.01 0.02 0.03 0.03 0.02 0.02 0.02 0.01 0.00 0.00 0.01 0.01 0.01 0.00 0.00 0.00 0.00 0.00 0.00 0.00 0.00 0.00 0.00 0.00 0.00 0.00 0.00 0.00 0.01 0.00 0.01 0.01 0.00 0.00 0.00 0.00 0.00 0.00
0.03 0.03 0.02 0.02 0.02 0.02 0.02 0.03 0.03 0.02 0.03 0.02 0.01 0.01 0.00 0.00 0.01 0.02 0.01 0.00 0.00 0.00 0.00 0.00 0.00 0.00 0.01 0.00 0.00 0.00 0.00 0.00 0.00 0.00 0.00 0.01 0.00 0.00 0.00 0.00 0.00 0.00 0.00
0.03 0.03 0.03 0.02 0.02 0.03 0.03 0.03 0.03 0.02 0.02 0.02 0.01 0.01 0.01 0.00 0.00 0.00 0.00 0.00 0.00 0.00 0.00 0.00 0.00 0.00 0.01 0.00 0.00 0.00 0.00 0.00 0.00 0.00 0.00 0.00 0.00 0.00 0.00 0.00 0.00 0.00 0.00
0.02 0.03 0.03 0.02 0.02 0.02 0.02 0.03 0.02 0.01 0.01 0.02 0.02 0.01 0.01 0.01 0.01 0.00 0.00 0.00 0.01 0.01 0.00 0.00 0.00 0.00 0.00 0.00 0.00 0.00 0.00 0.00 0.00 0.00 0.00 0.00 0.00 0.00 0.00 0.00 0.00 0.00 0.00
0.01 0.01 0.02 0.02 0.02 0.02 0.02 0.03 0.03 0.02 0.01 0.01 0.01 0.01 0.01 0.01 0.01 0.01 0.01 0.00 0.00 0.00 0.00 0.00 0.00 0.01 0.01 0.00 0.00 0.00 0.00 0.00 0.00 0.00 0.00 0.00 0.00 0.00 0.00 0.00 0.00 0.00 0.00
0.01 0.01 0.02 0.03 0.02 0.02 0.02 0.03 0.04 0.03 0.02 0.01 0.01 0.00 0.00 0.01 0.01 0.01 0.01 0.00 0.00 0.00 0.00 0.01 0.01 0.01 0.01 0.00 0.00 0.00 0.00 0.00 0.00 0.00 0.00 0.00 0.00 0.00 0.00 0.00 0.00 0.00 0.00
0.02 0.02 0.02 0.03 0.03 0.02 0.03 0.04 0.04 0.03 0.02 0.02 0.01 0.01 0.01 0.01 0.01 0.01 0.01 0.01 0.01 0.01 0.00 0.01 0.00 0.00 0.00 0.00 0.00 0.00 0.00 0.00 0.00 0.00 0.00 0.00 0.00 0.00 0.00 0.00 0.00 0.00 0.00
0.02 0.03 0.02 0.03 0.03 0.03 0.03 0.03 0.03 0.03 0.02 0.02 0.01 0.01 0.01 0.01 0.01 0.01 0.00 0.00 0.00 0.00 0.00 0.00 0.00 0.00 0.00 0.00 0.00 0.00 0.00 0.00 0.00 0.00 0.00 0.00 0.00 0.00 0.00 0.00 0.00 0.00 0.00
0.03 0.03 0.03 0.03 0.03 0.02 0.03 0.03 0.03 0.02 0.02 0.03 0.02 0.02 0.01 0.01 0.01 0.00 0.00 0.00 0.00 0.00 0.00 0.00 0.00 0.00 0.00 0.00 0.00 0.00 0.00 0.00 0.00 0.00 0.00 0.00 0.00 0.00 0.00 0.00 0.00 0.00 0.00
0.04 0.04 0.04 0.03 0.02 0.01 0.02 0.02 0.02 0.03 0.02 0.02 0.02 0.02 0.01 0.01 0.01 0.01 0.00 0.00 0.00 0.00 0.00 0.00 0.00 0.00 0.00 0.00 0.00 0.00 0.00 0.00 0.00 0.00 0.00 0.00 0.00 0.00 0.00 0.00 0.00 0.00 0.00
0.03 0.03 0.03 0.03 0.03 0.02 0.02 0.01 0.01 0.02 0.02 0.02 0.02 0.02 0.01 0.01 0.01 0.01 0.00 0.00 0.00 0.00 0.00 0.00 0.00 0.00 0.00 0.00 0.00 0.00 0.00 0.00 0.00 0.00 0.00 0.00 0.00 0.00 0.00 0.00 0.00 0.00 0.00
0.04 0.04 0.04 0.04 0.03 0.01 0.01 0.01 0.01 0.01 0.02 0.02 0.02 0.02 0.02 0.01 0.02 0.01 0.01 0.01 0.00 0.00 0.00 0.00 0.00 0.00 0.00 0.00 0.00 0.00 0.00 0.00 0.00 0.00 0.00 0.00 0.00 0.00 0.00 0.00 0.00 0.00 0.00
0.03 0.05 0.06 0.05 0.04 0.03 0.02 0.01 0.01 0.01 0.01 0.02 0.02 0.02 0.02 0.02 0.02 0.01 0.01 0.01 0.01 0.00 0.00 0.00 0.00 0.00 0.00 0.00 0.00 0.00 0.00 0.00 0.00 0.00 0.00 0.00 0.00 0.00 0.00 0.00 0.00 0.00 0.00
0.02 0.03 0.03 0.03 0.02 0.02 0.03 0.01 0.01 0.01 0.02 0.02 0.02 0.02 0.02 0.02 0.02 0.02 0.01 0.01 0.01 0.01 0.01 0.01 0.00 0.00 0.00 0.00 0.00 0.00 0.00 0.00 0.00 0.00 0.00 0.00 0.00 0.00 0.00 0.00 0.00 0.00 0.00
0.01 0.01 0.01 0.01 0.02 0.02 0.02 0.02 0.01 0.01 0.01 0.01 0.02 0.01 0.01 0.01 0.02 0.02 0.02 0.02 0.01 0.01 0.01 0.01 0.01 0.01 0.01 0.01 0.01 0.00 0.00 0.00 0.00 0.00 0.00 0.00 0.00 0.00 0.00 0.00 0.00 0.00 0.00
0.02 0.01 0.02 0.02 0.02 0.02 0.02 0.02 0.02 0.01 0.01 0.01 0.01 0.01 0.01 0.01 0.01 0.01 0.01 0.01 0.02 0.02 0.01 0.02 0.02 0.02 0.02 0.02 0.02 0.01 0.01 0.01 0.00 0.00 0.00 0.00 0.00 0.01 0.01 0.01 0.01 0.01 0.01
0.03 0.02 0.03 0.03 0.04 0.03 0.02 0.02 0.02 0.01 0.01 0.01 0.01 0.01 0.01 0.01 0.01 0.01 0.01 0.01 0.01 0.01 0.01 0.02 0.02 0.01 0.02 0.02 0.02 0.02 0.01 0.01 0.01 0.01 0.00 0.00 0.01 0.01 0.01 0.01 0.01 0.01 0.01
0.02 0.02 0.02 0.02 0.03 0.03 0.03 0.02 0.02 0.02 0.02 0.02 0.01 0.01 0.01 0.01 0.01 0.01 0.01 0.01 0.02 0.02 0.02 0.02 0.02 0.03 0.03 0.02 0.02 0.02 0.02 0.01 0.01 0.01 0.00 0.00 0.01 0.01 0.01 0.01 0.01 0.01 0.01
0.01 0.01 0.01 0.02 0.02 0.03 0.03 0.02 0.02 0.02 0.01 0.01 0.01 0.01 0.01 0.01 0.01 0.01 0.01 0.01 0.01 0.01 0.01 0.01 0.01 0.01 0.01 0.01 0.01 0.01 0.01 0.01 0.01 0.01 0.01 0.01 0.01 0.01 0.02 0.02 0.02 0.02 0.02
MSLP
1018.57 1018.69 1018.80 1018.88 1018.92 1018.92 1018.88 1018.83 1018.76 1018.71 1018.70 1018.71 1018.75 1018.82 1018.88 1018.94 1018.96 1018.95 1018.92 1018.86 1018.80 1018.75 1018.72 1018.73 1018.78 1018.87 1018.99 1019.13 1019.28 1019.43 1019.57 1019.70 1019.80 1019.87 1019.91 1019.91 1019.87 1019.79 1019.67 1019.51 1019.33 1019.12 1018.89
1018.56 1018.68 1018.77 1018.83 1018.85 1018.82 1018.77 1018.70 1018.65 1018.61 1018.62 1018.67 1018.76 1018.87 1018.98 1019.08 1019.16 1019.20 1019.21 1019.19 1019.15 1019.10 1019.07 1019.05 1019.06 1019.10 1019.16 1019.25 1019.35 1019.47 1019.59 1019.71 1019.83 1019.93 1020.00 1020.04 1020.04 1019.99 1019.90 1019.76 1019.59 1019.39 1019.16
1018.53 1018.67 1018.77 1018.82 1018.82 1018.77 1018.71 1018.64 1018.59 1018.58 1018.62 1018.70 1018.82 1018.97 1019.12 1019.26 1019.36 1019.44 1019.47 1019.48 1019.46 1019.43 1019.39 1019.37 1019.36 1019.36 1019.39 1019.43 1019.49 1019.58 1019.68 1019.79 1019.91 1020.02 1020.12 1020.19 1020.22 1020.20 1020.13 1020.01 1019.85 1019.64 1019.42
1018.49 1018.66 1018.77 1018.82 1018.82 1018.78 1018.71 1018.66 1018.63 1018.64 1018.71 1018.82 1018.98 1019.15 1019.32 1019.47 1019.59 1019.67 1019.71 1019.73 1019.71 1019.69 1019.66 1019.63 1019.61 1019.60 1019.61 1019.63 1019.66 1019.72 1019.79 1019.89 1020.00 1020.11 1020.22 1020.31 1020.37 1020.37 1020.32 1020.22 1020.06 1019.86 1019.63
1018.45 1018.66 1018.80 1018.86 1018.87 1018.83 1018.79 1018.75 1018.76 1018.81 1018.92 1019.07 1019.25 1019.44 1019.61 1019.76 1019.86 1019.92 1019.94 1019.93 1019.91 1019.87 1019.84 1019.82 1019.80 1019.79 1019.79 1019.80 1019.81 1019.85 1019.90 1019.97 1020.06 1020.16 1020.27 1020.37 1020.43 1020.46 1020.43 1020.35 1020.20 1020.00 1019.77
1018.46 1018.70 1018.87 1018.95 1018.98 1018.97 1018.95 1018.96 1019.01 1019.12 1019.27 1019.46 1019.66 1019.86 1020.02 1020.14 1020.20 1020.21 1020.18 1020.12 1020.06 1020.00 1019.96 1019.93 1019.92 1019.91 1019.92 1019.92 1019.93 1019.94 1019.97 1020.01 1020.07 1020.15 1020.24 1020.33 1020.40 1020.44 1020.43 1020.36 1020.24 1020.06 1019.83
1018.56 1018.83 1019.02 1019.13 1019.18 1019.21 1019.23 1019.29 1019.40 1019.56 1019.77 1020.00 1020.22 1020.41 1020.55 1020.62 1020.62 1020.56 1020.46 1020.34 1020.22 1020.12 1020.05 1020.01 1020.00 1020.00 1020.01 1020.02 1020.02 1020.02 1020.02 1020.03 1020.05 1020.10 1020.15 1020.22 1020.28 1020.32 1020.33 1020.28 1020.18 1020.02 1019.81
1018.81 1019.10 1019.31 1019.44 1019.53 1019.59 1019.66 1019.78 1019.94 1020.16 1020.42 1020.68 1020.92 1021.10 1021.21 1021.22 1021.15 1021.01 1020.82 1020.62 1020.43 1020.28 1020.18 1020.12 1020.10 1020.11 1020.12 1020.13 1020.13 1020.11 1020.08 1020.06 1020.04 1020.03 1020.05 1020.08 1020.12 1020.15 1020.16 1020.13 1020.06 1019.93 1019.74
1019.25 1019.55 1019.78 1019.93 1020.04 1020.14 1020.26 1020.42 1020.64 1020.91 1021.20 1021.49 1021.73 1021.90 1021.96 1021.92 1021.77 1021.55 1021.28 1021.00 1020.75 1020.55 1020.41 1020.33 1020.31 1020.31 1020.33 1020.34 1020.33 1020.30 1020.24 1020.17 1020.10 1020.05 1020.01 1020.00 1020.00 1020.01 1020.01 1019.99 1019.93 1019.82 1019.66
1019.91 1020.22 1020.45 1020.62 1020.75 1020.88 1021.03 1021.23 1021.48 1021.78 1022.09 1022.38 1022.62 1022.76 1022.78 1022.68 1022.48 1022.19 1021.85 1021.51 1021.21 1020.97 1020.80 1020.70 1020.67 1020.68 1020.70 1020.71 1020.69 1020.64 1020.56 1020.45 1020.33 1020.22 1020.12 1020.06 1020.01 1019.98 1019.96 1019.92 1019.87 1019.77 1019.62
1020.77 1021.07 1021.31 1021.49 1021.63 1021.78 1021.95 1022.17 1022.43 1022.73 1023.04 1023.32 1023.53 1023.64 1023.63 1023.49 1023.24 1022.90 1022.53 1022.15 1021.82 1021.56 1021.38 1021.28 1021.25 1021.26 1021.28 1021.29 1021.27 1021.20 1021.09 1020.95 1020.78 1020.62 1020.46 1020.33 1020.23 1020.15 1020.09 1020.03 1019.95 1019.84 1019.70
1021.78 1022.09 1022.32 1022.51 1022.66 1022.81 1022.98 1023.20 1023.46 1023.74 1024.02 1024.27 1024.45 1024.52 1024.47 1024.30 1024.03 1023.68 1023.29 1022.91 1022.58 1022.33 1022.15 1022.07 1022.04 1022.06 1022.09 1022.11 1022.08 1022.00 1021.87 1021.69 1021.49 1021.27 1021.07 1020.88 1020.72 1020.58 1020.47 1020.36 1020.24 1020.10 1019.93
1022.89 1023.18 1023.42 1023.61 1023.76 1023.91 1024.08 1024.27 1024.50 1024.75 1024.99 1025.19 1025.32 1025.35 1025.28 1025.10 1024.82 1024.49 1024.12 1023.78 1023.48 1023.26 1023.11 1023.05 1023.04 1023.07 1023.11 1023.12 1023.09 1023.00 1022.86 1022.66 1022.43 1022.18 1021.93 1021.69 1021.47 1021.28 1021.11 1020.94 1020.77 1020.58 1020.36
1023.99 1024.29 1024.52 1024.71 1024.87 1025.02 1025.17 1025.34 1025.53 1025.73 1025.92 1026.06 1026.15 1026.14 1026.05 1025.87 1025.62 1025.32 1025.01 1024.72 1024.48 1024.31 1024.20 1024.17 1024.19 1024.23 1024.27 1024.28 1024.24 1024.15 1023.99 1023.78 1023.54 1023.27 1022.99 1022.72 1022.46 1022.21 1021.98 1021.75 1021.51 1021.27 1020.99
1025.03 1025.31 1025.55 1025.75 1025.92 1026.07 1026.21 1026.36 1026.51 1026.66 1026.79 1026.88 1026.92 1026.89 1026.79 1026.63 1026.42 1026.17 1025.93 1025.71 1025.54 1025.43 1025.38 1025.38 1025.41 1025.46 1025.49 1025.49 1025.45 1025.34 1025.18 1024.96 1024.71 1024.43 1024.15 1023.85 1023.56 1023.28 1023.00 1022.72 1022.43 1022.11 1021.78
1025.92 1026.21 1026.46 1026.67 1026.85 1027.01 1027.15 1027.29 1027.42 1027.53 1027.61 1027.66 1027.67 1027.62 1027.53 1027.39 1027.23 1027.05 1026.88 1026.74 1026.64 1026.58 1026.57 1026.59 1026.63 1026.67 1026.69 1026.66 1026.59 1026.47 1026.30 1026.08 1025.83 1025.55 1025.27 1024.97 1024.67 1024.36 1024.05 1023.73 1023.38 1023.02 1022.63
1026.67 1026.95 1027.22 1027.45 1027.66 1027.84 1027.99 1028.13 1028.24 1028.33 1028.39 1028.42 1028.40 1028.35 1028.27 1028.16 1028.05 1027.93 1027.83 1027.76 1027.72 1027.71 1027.72 1027.75 1027.77 1027.78 1027.76 1027.70 1027.59 1027.44 1027.25 1027.02 1026.77 1026.50 1026.22 1025.93 1025.63 1025.31 1024.98 1024.63 1024.25 1023.84 1023.41
1027.27 1027.56 1027.83 1028.09 1028.33 1028.55 1028.73 1028.88 1029.00 1029.08 1029.13 1029.15 1029.12 1029.08 1029.02 1028.94 1028.87 1028.81 1028.77 1028.75 1028.74 1028.75 1028.77 1028.77 1028.76 1028.72 1028.64 1028.53 1028.37 1028.17 1027.95 1027.70 1027.44 1027.17 1026.90 1026.61 1026.32 1026.00 1025.66 1025.29 1024.89 1024.45 1023.99
1027.77 1028.06 1028.35 1028.64 1028.91 1029.16 1029.38 1029.55 1029.69 1029.78 1029.83 1029.85 1029.83 1029.80 1029.75 1029.71 1029.67 1029.65 1029.64 1029.65 1029.66 1029.66 1029.66 1029.62 1029.56 1029.45 1029.30 1029.11 1028.88 1028.63 1028.36 1028.08 1027.80 1027.52 1027.24 1026.96 1026.66 1026.35 1026.00 1025.62 1025.20 1024.74 1024.25
1028.22 1028.51 1028.81 1029.12 1029.42 1029.70 1029.95 1030.16 1030.32 1030.43 1030.49 1030.51 1030.51 1030.48 1030.45 1030.43 1030.41 1030.40 1030.41 1030.42 1030.42 1030.40 1030.35 1030.26 1030.12 1029.93 1029.70 1029.42 1029.12 1028.80 1028.48 1028.16 1027.85 1027.54 1027.25 1026.95 1026.64 1026.31 1025.95 1025.55 1025.11 1024.64 1024.13
1028.67 1028.95 1029.25 1029.58 1029.90 1030.20 1030.48 1030.70 1030.88 1031.00 1031.08 1031.11 1031.11 1031.09 1031.07 1031.05 1031.03 1031.03 1031.02 1031.01 1030.98 1030.92 1030.81 1030.65 1030.43 1030.16 1029.85 1029.49 1029.11 1028.72 1028.34 1027.97 1027.61 1027.27 1026.95 1026.62 1026.28 1025.93 1025.54 1025.11 1024.65 1024.16 1023.63
1029.14 1029.41 1029.71 1030.04 1030.37 1030.68 1030.96 1031.20 1031.38 1031.51 1031.58 1031.62 1031.61 1031.59 1031.57 1031.54 1031.51 1031.49 1031.45 1031.41 1031.33 1031.21 1031.04 1030.80 1030.51 1030.16 1029.77 1029.34 1028.89 1028.44 1028.00 1027.57 1027.17 1026.78 1026.41 1026.04 1025.66 1025.26 1024.83 1024.37 1023.88 1023.35 1022.80
1029.65 1029.91 1030.20 1030.51 1030.83 1031.13 1031.40 1031.63 1031.81 1031.93 1031.99 1032.02 1032.01 1031.97 1031.93 1031.87 1031.82 1031.76 1031.69 1031.59 1031.46 1031.27 1031.03 1030.74 1030.38 1029.96 1029.50 1029.01 1028.51 1028.01 1027.51 1027.04 1026.59 1026.15 1025.72 1025.30 1024.86 1024.41 1023.93 1023.42 1022.88 1022.31 1021.73
1030.18 1030.42 1030.69 1030.98 1031.27 1031.55 1031.80 1032.01 1032.16 1032.27 1032.31 1032.32 1032.29 1032.23 1032.16 1032.07 1031.98 1031.87 1031.75 1031.59 1031.40 1031.16 1030.86 1030.50 1030.08 1029.61 1029.10 1028.57 1028.03 1027.48 1026.95 1026.43 1025.93 1025.45 1024.96 1024.48 1023.98 1023.46 1022.92 1022.35 1021.76 1021.15 1020.53
1030.68 1030.91 1031.16 1031.42 1031.69 1031.94 1032.15 1032.33 1032.46 1032.53 1032.55 1032.53 1032.48 1032.39 1032.29 1032.16 1032.03 1031.87 1031.69 1031.47 1031.22 1030.91 1030.55 1030.14 1029.67 1029.16 1028.62 1028.05 1027.48 1026.91 1026.34 1025.79 1025.25 1024.71 1024.17 1023.62 1023.06 1022.47 1021.86 1021.23 1020.58 1019.93 1019.28
1031.12 1031.34 1031.57 1031.81 1032.05 1032.26 1032.44 1032.59 1032.68 1032.73 1032.73 1032.69 1032.60 1032.49 1032.35 1032.19 1032.01 1031.80 1031.56 1031.29 1030.97 1030.60 1030.18 1029.72 1029.21 1028.66 1028.09 1027.50 1026.90 1026.30 1025.71 1025.12 1024.53 1023.94 1023.34 1022.73 1022.09 1021.44 1020.76 1020.06 1019.36 1018.66 1017.98
Thickness
5707 5707 5706 5705 5705 5704 5702 5701 5701 5700 5698 5697 5696 5695 5693 5692 5691 5689 5687 5685 5684 5682 5681 5680 5678 5678 5676 5675 5674 5672 5670 5667 5661 5659 5660 5661 5661 5661 5660 5660 5659 5659 5658
5705 5704 5703 5703 5702 5700 5699 5699 5698 5697 5696 5695 5693 5691 5690 5689 5687 5685 5683 5681 5680 5678 5677 5676 5674 5674 5672 5671 5670 5668 5666 5664 5661 5655 5655 5655 5656 5655 5655 5654 5654 5653 5653
5703 5701 5700 5699 5698 5697 5697 5696 5695 5694 5693 5691 5689 5687 5686 5685 5684 5682 5680 5678 5676 5674 5673 5672 5670 5669 5667 5666 5665 5663 5662 5661 5658 5654 5650 5650 5650 5650 5649 5648 5648 5647 5647
5700 5698 5696 5696 5695 5695 5694 5693 5692 5691 5689 5687 5685 5684 5683 5682 5680 5679 5676 5674 5672 5671 5670 5668 5667 5665 5664 5662 5661 5658 5657 5654 5652 5649 5646 5644 5643 5643 5642 5640 5639 5640 5640
5697 5695 5694 5693 5693 5692 5690 5689 5688 5687 5685 5684 5682 5680 5679 5678 5677 5675 5673 5671 5668 5666 5665 5664 5663 5663 5661 5660 5658 5654 5652 5649 5646 5643 5640 5638 5636 5635 5634 5633 5632 5632 5633
5694 5692 5691 5690 5689 5687 5686 5685 5683 5682 5680 5679 5677 5676 5675 5674 5674 5672 5670 5667 5664 5662 5660 5659 5658 5657 5657 5655 5654 5652 5650 5645 5641 5638 5635 5633 5631 5631 5630 5629 5626 5625 5624
5691 5689 5688 5687 5685 5684 5683 5681 5679 5677 5675 5674 5672 5671 5670 5669 5670 5668 5666 5663 5660 5657 5655 5654 5653 5652 5650 5649 5648 5646 5644 5643 5641 5637 5632 5630 5628 5627 5625 5623 5620 5618 5616
5688 5686 5685 5684 5682 5681 5679 5677 5675 5673 5671 5669 5667 5665 5665 5664 5664 5663 5661 5657 5654 5652 5650 5649 5647 5645 5645 5643 5641 5639 5637 5636 5635 5633 5630 5627 5626 5624 5621 5618 5615 5612 5610
5684 5683 5682 5681 5679 5677 5675 5673 5671 5669 5667 5664 5662 5660 5659 5658 5659 5657 5655 5651 5648 5645 5644 5643 5642 5640 5640 5638 5635 5631 5629 5628 5628 5626 5624 5621 5619 5617 5614 5611 5606 5603 5600
5682 5681 5680 5678 5676 5673 5672 5670 5668 5666 5663 5660 5657 5656 5654 5653 5653 5652 5649 5646 5641 5638 5637 5636 5636 5635 5634 5631 5628 5625 5622 5620 5619 5618 5615 5613 5611 5609 5606 5603 5598 5594 5590
5680 5678 5676 5675 5673 5670 5668 5666 5664 5661 5658 5655 5652 5650 5648 5648 5647 5646 5644 5640 5636 5633 5630 5629 5628 5628 5627 5624 5622 5619 5617 5615 5612 5609 5606 5604 5602 5599 5597 5594 5591 5586 5581
5677 5674 5672 5671 5669 5667 5664 5661 5659 5656 5652 5649 5646 5644 5642 5641 5641 5640 5638 5636 5633 5628 5625 5623 5622 5621 5619 5617 5615 5613 5610 5607 5603 5599 5596 5593 5591 5589 5587 5585 5582 5579 5575
5671 5668 5667 5665 5663 5661 5658 5655 5652 5650 5647 5644 5642 5639 5636 5635 5635 5634 5632 5630 5627 5623 5620 5618 5616 5614 5612 5609 5606 5604 5601 5597 5593 5589 5585 5583 5581 5579 5577 5575 5572 5570 5567
5666 5663 5661 5658 5656 5654 5653 5651 5648 5645 5643 5641 5637 5634 5631 5629 5628 5627 5625 5622 5620 5616 5613 5610 5608 5605 5602 5599 5596 5593 5590 5587 5583 5580 5577 5574 5572 5569 5566 5564 5561 5559 5556
5660 5658 5655 5652 5650 5648 5646 5645 5644 5643 5642 5638 5635 5632 5628 5625 5624 5623 5619 5616 5612 5609 5604 5600 5597 5594 5591 5588 5585 5582 5579 5577 5573 5570 5567 5564 5562 5559 5556 5553 5550 5547 5543
5655 5652 5649 5646 5643 5641 5639 5637 5637 5637 5636 5635 5632 5629 5626 5624 5621 5617 5613 5610 5606 5602 5597 5591 5587 5583 5580 5577 5574 5571 5569 5566 5564 5561 5558 5555 5552 5548 5545 5542 5539 5535 5532
5651 5647 5644 5641 5638 5635 5633 5631 5628 5628 5628 5627 5625 5622 5620 5617 5614 5610 5606 5602 5598 5594 5588 5583 5579 5576 5572 5569 5566 5562 5559 5557 5554 5551 5548 5544 5541 5538 5534 5531 5528 5525 5522
5645 5642 5639 5635 5633 5630 5629 5626 5624 5622 5619 5617 5616 5614 5612 5609 5606 5602 5598 5593 5587 5584 5580 5577 5573 5569 5565 5561 5558 5555 5551 5548 5545 5541 5537 5534 5531 5527 5524 5521 5517 5514 5512
5639 5636 5633 5630 5628 5625 5623 5620 5618 5616 5613 5609 5607 5605 5604 5601 5597 5594 5590 5585 5581 5576 5573 5569 5566 5562 5558 5554 5551 5547 5543 5539 5536 5532 5528 5525 5521 5518 5514 5511 5508 5506 5503
5632 5631 5628 5624 5621 5618 5616 5614 5611 5608 5605 5602 5600 5597 5594 5591 5587 5584 5580 5577 5574 5570 5567 5563 5559 5555 5551 5547 5543 5539 5535 5531 5527 5524 5520 5517 5513 5509 5506 5503 5500 5497 5494
5626 5623 5621 5618 5615 5613 5610 5608 5605 5602 5599 5596 5593 5591 5589 5584 5581 5577 5573 5570 5567 5563 5559 5555 5551 5547 5543 5539 5535 5531 5527 5523 5519 5516 5512 5508 5505 5501 5498 5494 5491 5489 5486
5619 5616 5614 5612 5609 5606 5604 5602 5599 5596 5593 5590 5586 5584 5581 5577 5574 5570 5567 5564 5560 5556 5553 5548 5544 5540 5535 5531 5527 5523 5519 5515 5511 5508 5504 5500 5497 5493 5489 5486 5483 5480 5476
5613 5610 5607 5605 5602 5600 5597 5594 5591 5588 5585 5583 5580 5576 5573 5569 5566 5563 5560 5556 5552 5548 5544 5540 5536 5531 5527 5523 5519 5515 5510 5507 5503 5499 5495 5492 5488 5485 5481 5477 5474 5471 5468
5605 5603 5600 5597 5594 5591 5589 5586 5583 5581 5578 5575 5572 5569 5565 5562 5558 5555 5552 5548 5544 5540 5536 5532 5527 5523 5519 5515 5510 5506 5502 5498 5494 5490 5486 5483 5479 5476 5473 5469 5466 5463 5460
5597 5594 5591 5588 5585 5583 5580 5578 5575 5572 5570 5567 5564 5560 5557 5553 5550 5547 5543 5540 5536 5531 5527 5523 5519 5515 5510 5506 5502 5498 5494 5490 5485 5481 5477 5474 5470 5467 5464 5460 5457 5454 5451
5587 5585 5582 5579 5576 5573 5571 5568 5566 5563 5560 5558 5555 5551 5548 5544 5541 5538 5534 5530 5526 5522 5518 5514 5510 5506 5502 5497 5493 5489 5485 5481 5476 5472 5468 5465 5461 5458 5455 5451 5448 5445 5442